Retour au catalogue

STARLINK-2166

ActifCommunicationsVLEO
NORAD 48558·PAYLOAD·🇺🇸 United States

Lancé May 15, 2021 depuis Cape Canaveral Space Force Station

Loading…

Prochains Passages (prochaines 24 heures)

TLE

FraisSource: CelesTrak SupGP

Époque: Sep 14, 2026, 20:25 UTC

1 48558C 21041F   26257.85118056 -.00033918  00000+0 -10904-2 0  2572
2 48558  53.1577 326.5260 0001077  90.2648 132.6700 15.31728465    10

Suivez STARLINK-2166 en temps réel avec AllMySat

Download on the App Store